STARLINK-3891, 52650

Orbit data source: Space-Track

STARLINK-3891, 52650 is a payload satellite owned by SpaceX/Seattle (US) in LEO that was launched on Sat, 14 May 2022 UTC via an FALCON 9 launch vehicle from the Air Force Eastern Test Range (AFETR). Payload-class satellites include a variety of spacecraft equipped with specific instruments for various scientific and technological missions. These include communications satellites like Starlink; space stations such as the ISS; scientific satellites like the Hubble; Earth observation satellites from companies like Planet Labs, Umbra, and HawkEye 360; GPS; miniature CubeSats for education and research; and military/defense satellites.

Loading next visibility...
Identifier
52650, 2022-052BE
Orbit
LEO
Country
Flag of USUS
Related business
Manufacturer
SpaceX/Seattle
Mission
Operational Commercial Communications
Bus & Motor
STARLINK, Unknown motor
Mass
297 kg wet, ~275 kg dry
Launch date (UTC)
2022-05-14 (4 years ago)
Launch vehicle
FALCON 9
Launch site
Air Force Eastern Test Range (AFETR)
Object type
Payload
Rocket body
Debris
Shape & HBR
Box + 1 Pan, 10.1 m
Radar Cross Section
13.562 m², Large (>1 m²)

Expand to show TLE details & history
Last TLE update: 2 days ago

TLE from 2 days ago
0 STARLINK-3891
1 52650U 22052BE  26171.33437089  .00000713  00000-0  62860-4 0  9990
2 52650  53.1599 148.3230 0001433  81.9022 278.2132 15.08847784226777
Epoch: 2026-06-20T08:01Z
TLE epoch observation values (Epoch: 2026-06-20T08:01:29.644Z)
Latitude
-0.00004°
Longitude
119.39897°
Altitude
540.469 km
Speed
7.593 km/s
True Right ascension
09h 53m 17s
True Declination
0° 00' 00"
Sunlit
Object was in daylight at epoch
Visualization orbit readout
Latitude
Unknown
Longitude
Unknown
Altitude
Unknown
Speed
Unknown
Apparent Right ascension
Unknown
Apparent Declination
Unknown
Sunlit
N/A
Visualization observer readout
Local Sidereal Time
21:28:40
Azimuth
Unknown
Elevation
Unknown
Doppler factor
Unknown
Orbital elements
Apogee altitude
540.965 km
Perigee altitude
538.982 km
Semi-major axis
6,918.111 km
Eccentricity
0.00014
Inclination
53.1599°
RAAN
148.323°
Arg. of periapsis
81.9022°
True anomaly
278.19695°
Mean anomaly
278.2132°
Eccentric anomaly
278.20507°
Mean motion
3.77192 °/min
Orbital period
95.44 mins
BSTAR
0.00006286
Loading maneuver chart data...
Computing Atmospheric mass density...
Loading historical data...
Loading historical data...
Loading historical data...
Loading historical data...
Loading historical data...
Loading historical data...
Loading historical data...

Documentation

Showing up to 5 results
|